Cloud_Cover
100 100 100 100 100 100 100 100 100 100 99 100 100 100 100 100 90 100 88 90 88 100 97 36 5 4 0 2 34 11 5 77 100 100 100 100 100 100
100 100 100 100 100 100 100 100 100 100 94 100 100 100 100 100 89 100 9 99 94 100 100 100 31 5 2 0 0 4 6 5 8 97 100 100 100 100
100 100 100 100 100 100 100 100 100 100 100 100 100 100 100 100 100 88 5 18 95 100 100 100 99 56 5 0 0 0 1 5 5 2 67 100 100 100
99 100 100 100 100 100 100 100 100 100 100 100 100 100 100 100 80 80 83 68 95 90 100 100 100 100 11 3 0 0 0 0 5 5 5 0 80 100
5 5 8 5 35 98 100 100 100 100 100 88 100 100 100 100 100 25 66 95 50 84 62 14 8 81 93 4 1 0 0 0 0 2 5 5 2 1
5 5 5 46 62 73 73 86 100 100 100 100 100 100 94 87 96 92 54 64 37 87 100 99 98 32 5 5 0 0 0 0 0 0 0 0 2 4
5 5 31 86 22 24 35 92 82 69 98 100 100 100 100 100 45 62 92 74 20 53 42 30 73 100 100 93 78 4 0 0 0 0 0 0 0 4
29 60 90 100 100 100 86 25 100 100 100 100 98 100 100 100 100 100 100 89 93 99 78 52 66 23 26 80 99 100 42 5 5 5 0 0 0 0
100 100 100 100 100 100 98 98 99 97 83 83 98 93 99 100 100 100 95 100 100 98 100 93 100 95 99 79 38 5 39 37 26 5 5 4 2 3
100 100 100 85 91 73 96 100 100 100 100 91 93 82 98 98 100 96 100 100 95 93 99 98 99 89 100 100 100 31 5 5 5 5 5 5 4 1
100 100 100 93 100 100 100 100 96 96 100 99 88 65 59 46 43 92 91 99 99 92 99 100 97 100 100 95 94 82 5 5 5 5 5 5 5 1
100 100 100 100 94 92 99 100 84 100 100 100 89 87 97 99 100 99 97 100 94 95 100 100 95 100 84 100 68 7 15 11 5 5 5 5 5 5
100 100 100 100 100 100 98 100 100 100 100 100 100 100 99 99 100 100 100 100 100 97 100 100 96 100 100 100 65 99 100 99 88 50 10 5 5 5
100 99 100 100 100 100 100 100 100 100 100 100 100 100 100 100 100 100 100 100 100 99 100 100 100 100 100 100 100 95 100 100 100 100 8 68 5 5
100 100 100 100 100 100 100 100 100 100 100 100 100 98 100 100 100 100 100 100 100 100 100 100 98 100 100 100 100 100 100 100 100 91 92 70 100 95
100 100 100 100 100 100 100 100 100 100 100 100 100 100 99 100 100 98 75 99 100 87 95 78 77 98 94 99 100 100 100 100 100 95 100 100 100 100
100 100 100 100 100 100 100 100 100 100 100 100 100 100 100 93 100 100 88 87 91 99 100 100 92 95 100 100 88 98 100 100 100 100 100 100 100 100
100 100 100 100 100 100 100 100 100 100 100 100 100 100 100 100 94 93 100 97 98 91 75 89 100 99 100 100 100 100 100 100 100 100 100 99 100 100
100 100 100 100 100 100 100 100 100 100 100 100 100 100 100 100 100 100 96 86 95 100 100 98 100 100 100 100 100 100 100 100 100 100 100 100 100 100
100 100 100 100 100 100 100 100 100 100 100 100 100 100 100 100 100 100 100 100 100 78 100 99 92 92 100 100 100 100 100 100 100 100 100 100 100 100
100 100 100 100 100 100 100 100 100 100 100 100 100 100 100 100 100 100 100 100 100 100 100 94 79 22 69 99 100 100 100 100 100 100 100 100 100 100
100 100 100 100 100 100 100 100 100 100 100 100 100 100 100 100 100 100 100 100 100 100 100 100 92 90 98 95 100 95 100 100 100 100 100 100 100 100
100 100 100 100 100 100 100 100 100 100 100 100 100 100 100 100 100 100 100 100 100 100 100 100 100 100 98 95 94 91 93 100 100 100 100 100 100 100